Hourly Weather Abanosimovka

Today, 30 September, Wednesday

Time Temperature Precipitation Wind Pressure Humidity
00:00 +12°C° 0 mm 4 mps 755 mmHg 50%
01:00 +12°C° 0 mm 4 mps 755 mmHg 53%
02:00 +12°C° 0 mm 4 mps 755 mmHg 56%
03:00 +10°C° 0 mm 5 mps 755 mmHg 61%
04:00 +10°C° 0 mm 5 mps 755 mmHg 61%
05:00 +10°C° 0 mm 5 mps 755 mmHg 62%
06:00 +10°C° 0 mm 5 mps 755 mmHg 63%
07:00 +11°C° 0 mm 6 mps 755 mmHg 56%
08:00 +14°C° 0 mm 7 mps 755 mmHg 49%
09:00 +15°C° 0 mm 7 mps 755 mmHg 42%
10:00 +16°C° 0 mm 7 mps 755 mmHg 39%
11:00 +17°C° 0 mm 7 mps 755 mmHg 36%
12:00 +20°C° 0 mm 8 mps 755 mmHg 33%
13:00 +20°C° 0 mm 8 mps 755 mmHg 32%
14:00 +21°C° 0 mm 7 mps 754 mmHg 31%
15:00 +21°C° 0 mm 7 mps 754 mmHg 30%
16:00 +20°C° 0 mm 6 mps 754 mmHg 32%
17:00 +19°C° 0 mm 6 mps 754 mmHg 35%
18:00 +16°C° 0 mm 5 mps 754 mmHg 37%
19:00 +16°C° 0 mm 5 mps 754 mmHg 39%
20:00 +15°C° 0 mm 5 mps 755 mmHg 41%
21:00 +15°C° 0 mm 5 mps 755 mmHg 43%
22:00 +15°C° 0 mm 5 mps 755 mmHg 44%
23:00 +14°C° 0 mm 5 mps 755 mmHg 46%

Tomorrow, 1 October, Thursday

Time Temperature Precipitation Wind Pressure Humidity
00:00 +14°C° 0 mm 5 mps 755 mmHg 47%
01:00 +14°C° 0 mm 5 mps 755 mmHg 47%
02:00 +13°C° 0 mm 5 mps 755 mmHg 48%
03:00 +13°C° 0 mm 5 mps 755 mmHg 48%
04:00 +12°C° 0 mm 5 mps 755 mmHg 48%
05:00 +12°C° 0 mm 5 mps 755 mmHg 48%
06:00 +12°C° 0 mm 5 mps 755 mmHg 48%
07:00 +13°C° 0 mm 6 mps 756 mmHg 44%
08:00 +14°C° 0 mm 6 mps 756 mmHg 41%
09:00 +15°C° 0 mm 7 mps 756 mmHg 37%
10:00 +17°C° 0 mm 7 mps 756 mmHg 35%
11:00 +18°C° 0 mm 7 mps 756 mmHg 33%
12:00 +21°C° 0 mm 8 mps 756 mmHg 30%
13:00 +21°C° 0 mm 7 mps 756 mmHg 30%
14:00 +21°C° 0 mm 7 mps 756 mmHg 29%
15:00 +21°C° 0 mm 7 mps 755 mmHg 29%
16:00 +20°C° 0 mm 7 mps 755 mmHg 32%
17:00 +19°C° 0 mm 6 mps 755 mmHg 34%
18:00 +16°C° 0 mm 5 mps 755 mmHg 37%
19:00 +16°C° 0 mm 5 mps 755 mmHg 37%
20:00 +15°C° 0 mm 5 mps 756 mmHg 38%
21:00 +15°C° 0 mm 5 mps 756 mmHg 39%
22:00 +14°C° 0 mm 5 mps 756 mmHg 41%
23:00 +14°C° 0 mm 5 mps 756 mmHg 43%

Day after tomorrow, 2 October, Friday

Time Temperature Precipitation Wind Pressure Humidity
00:00 +13°C° 0 mm 4 mps 756 mmHg 45%
01:00 +13°C° 0 mm 4 mps 756 mmHg 48%
02:00 +12°C° 0 mm 4 mps 756 mmHg 51%
03:00 +12°C° 0 mm 4 mps 756 mmHg 54%
04:00 +12°C° 0 mm 4 mps 756 mmHg 58%
05:00 +12°C° 0 mm 4 mps 756 mmHg 63%
06:00 +11°C° 0 mm 4 mps 756 mmHg 67%
07:00 +12°C° 0 mm 5 mps 756 mmHg 64%
08:00 +14°C° 0 mm 5 mps 756 mmHg 61%
09:00 +15°C° 0 mm 6 mps 756 mmHg 58%
10:00 +16°C° 0 mm 6 mps 756 mmHg 53%
11:00 +17°C° 0 mm 6 mps 756 mmHg 49%
12:00 +20°C° 0 mm 6 mps 756 mmHg 44%
13:00 +20°C° 0 mm 6 mps 756 mmHg 43%
14:00 +20°C° 0 mm 6 mps 756 mmHg 42%
15:00 +20°C° 0 mm 6 mps 756 mmHg 41%
16:00 +19°C° 0 mm 5 mps 756 mmHg 43%
17:00 +17°C° 0 mm 5 mps 756 mmHg 46%
18:00 +17°C° 0 mm 4 mps 756 mmHg 49%
19:00 +17°C° 0 mm 4 mps 756 mmHg 49%
20:00 +15°C° 0 mm 4 mps 756 mmHg 49%
21:00 +14°C° 0 mm 5 mps 757 mmHg 49%
22:00 +14°C° 0 mm 4 mps 757 mmHg 50%
23:00 +13°C° 0 mm 4 mps 757 mmHg 50%

3 October, Saturday

Time Temperature Precipitation Wind Pressure Humidity
00:00 +13°C° 0 mm 4 mps 757 mmHg 51%
01:00 +12°C° 0 mm 4 mps 757 mmHg 52%
02:00 +12°C° 0 mm 4 mps 757 mmHg 52%
03:00 +12°C° 0 mm 4 mps 757 mmHg 53%
04:00 +12°C° 0 mm 4 mps 757 mmHg 53%
05:00 +11°C° 0 mm 4 mps 757 mmHg 54%
06:00 +11°C° 0 mm 4 mps 757 mmHg 55%
07:00 +12°C° 0 mm 4 mps 757 mmHg 53%
08:00 +13°C° 0 mm 4 mps 757 mmHg 50%
09:00 +14°C° 0 mm 4 mps 757 mmHg 48%
10:00 +17°C° 0 mm 4 mps 757 mmHg 44%
11:00 +17°C° 0 mm 5 mps 757 mmHg 41%
12:00 +20°C° 0 mm 5 mps 757 mmHg 37%
13:00 +20°C° 0 mm 5 mps 757 mmHg 36%
14:00 +21°C° 0 mm 5 mps 757 mmHg 35%
15:00 +21°C° 0 mm 4 mps 756 mmHg 35%
16:00 +19°C° 0 mm 4 mps 756 mmHg 39%
17:00 +18°C° 0 mm 4 mps 756 mmHg 43%
18:00 +17°C° 0 mm 3 mps 756 mmHg 47%
19:00 +16°C° 0 mm 3 mps 757 mmHg 47%
20:00 +15°C° 0 mm 4 mps 757 mmHg 48%
21:00 +14°C° 0 mm 4 mps 757 mmHg 48%
22:00 +14°C° 0 mm 4 mps 757 mmHg 48%
23:00 +14°C° 0 mm 3 mps 757 mmHg 49%

4 October, Sunday

Time Temperature Precipitation Wind Pressure Humidity
00:00 +13°C° 0 mm 3 mps 757 mmHg 49%
01:00 +13°C° 0 mm 3 mps 757 mmHg 50%
02:00 +12°C° 0 mm 3 mps 757 mmHg 51%
03:00 +12°C° 0 mm 3 mps 757 mmHg 52%
04:00 +12°C° 0 mm 3 mps 757 mmHg 52%
05:00 +12°C° 0 mm 3 mps 757 mmHg 52%
06:00 +11°C° 0 mm 3 mps 757 mmHg 51%
07:00 +12°C° 0 mm 3 mps 757 mmHg 50%
08:00 +13°C° 0 mm 3 mps 757 mmHg 48%
09:00 +14°C° 0 mm 4 mps 757 mmHg 46%
10:00 +15°C° 0 mm 4 mps 757 mmHg 43%
11:00 +17°C° 0 mm 4 mps 757 mmHg 40%
12:00 +19°C° 0 mm 4 mps 757 mmHg 37%
13:00 +19°C° 0 mm 4 mps 757 mmHg 37%
14:00 +19°C° 0 mm 4 mps 757 mmHg 37%
15:00 +19°C° 0 mm 4 mps 757 mmHg 36%
16:00 +18°C° 0 mm 4 mps 757 mmHg 40%
17:00 +17°C° 0 mm 3 mps 757 mmHg 44%
18:00 +16°C° 0 mm 3 mps 757 mmHg 48%
19:00 +14°C° 0 mm 3 mps 757 mmHg 50%
20:00 +14°C° 0 mm 3 mps 758 mmHg 53%
21:00 +13°C° 0 mm 3 mps 758 mmHg 55%
22:00 +12°C° 0 mm 3 mps 758 mmHg 60%
23:00 +12°C° 0 mm 3 mps 758 mmHg 64%

5 October, Monday

Time Temperature Precipitation Wind Pressure Humidity
00:00 +11°C° 0 mm 3 mps 758 mmHg 68%
01:00 +11°C° 0 mm 3 mps 758 mmHg 71%
02:00 +10°C° 0 mm 3 mps 758 mmHg 73%
03:00 +10°C° 0 mm 3 mps 758 mmHg 76%
04:00 +10°C° 0 mm 3 mps 758 mmHg 77%
05:00 +9°C° 0 mm 3 mps 758 mmHg 79%
06:00 +9°C° 0 mm 3 mps 759 mmHg 81%
07:00 +10°C° 0 mm 3 mps 759 mmHg 74%
08:00 +12°C° 0 mm 3 mps 759 mmHg 66%
09:00 +13°C° 0 mm 3 mps 759 mmHg 59%
10:00 +16°C° 0 mm 3 mps 759 mmHg 54%
11:00 +17°C° 0 mm 3 mps 759 mmHg 49%
12:00 +19°C° 0 mm 4 mps 759 mmHg 44%
13:00 +19°C° 0 mm 3 mps 759 mmHg 42%
14:00 +19°C° 0 mm 3 mps 758 mmHg 41%
15:00 +20°C° 0 mm 3 mps 758 mmHg 40%
16:00 +18°C° 0 mm 3 mps 758 mmHg 44%
17:00 +17°C° 0 mm 2 mps 758 mmHg 48%
18:00 +15°C° 0 mm 2 mps 758 mmHg 52%
19:00 +14°C° 0 mm 3 mps 758 mmHg 54%
20:00 +13°C° 0 mm 3 mps 758 mmHg 56%
21:00 +12°C° 0 mm 3 mps 758 mmHg 59%
22:00 +12°C° 0 mm 3 mps 758 mmHg 61%
23:00 +11°C° 0 mm 3 mps 758 mmHg 64%
Show more